Location: Unspecified
(0.0000°N, 0.0000°E)
Time: 06:27:36
(UTC+00:00)

Vanguard 2 Rocket - Pass Details

Date: 07 October 2023
Orbit: 552 x 3312 km, 32.9° (Epoch: 06 December)

Event Time Altitude Azimuth Distance (km) Brightness Sun altitude
Rises 13:36:05 0° 317° (NW) 6,964 11.6 62.4°
Reaches altitude 10° 13:41:16 10° 325° (NW) 6,134 11.4 61.2°
Maximum altitude 13:59:20 39° 28° (NNE) 4,189 10.5 56.7°
Drops below altitude 10° 14:14:32 10° 91° (E) 5,279 10.5 53.0°
Sets 14:18:28 0° 98° (E) 5,956 10.7 52.0°
